Location: Recife
(8.0585°S, 34.8848°W)
Time: 08:30:03
(UTC-03:00)

Altair - Pass Details

Date: 22 April 2026
Orbit: 1501 x 1682 km, 47.2° (Epoch: 11 May)

Event Time Altitude Azimuth Distance (km) Brightness Sun altitude
Rises 19:55:13 0° 318° (NW) 4,685 10.6 -40.0°
Reaches altitude 10° 19:58:16 10° 317° (NW) 3,686 10.0 -40.7°
Enters shadow 20:05:13 56° 306° (NW) 1,744 7.8 -42.4°
